Location: Unspecified
(64.9000°N, 0.0000°E)
Time: 15:19:20
(UTC+00:00)

Altair - Pass Details

Date: 20 June 2019
Orbit: 1501 x 1683 km, 47.2° (Epoch: 21 August)

Event Time Altitude Azimuth Distance (km) Brightness Sun altitude
Rises 23:24:45 0° 248° (WSW) 4,793 10.0 -1.4°
Reaches altitude 10° 23:28:23 10° 237° (WSW) 3,836 9.4 -1.4°
Maximum altitude 23:36:07 28° 185° (S) 2,748 8.3 -1.5°
Drops below altitude 10° 23:44:02 10° 132° (SE) 3,929 9.2 -1.6°
Sets 23:47:48 0° 122° (ESE) 4,928 9.8 -1.6°
